DW8522 Weather Reports


Display with metric or nautical units.
time (UTC)temp
F
wind
direction
speed
MPH
gust
MPH
rain 1hr
in
rain 24hr
in
rain mn
in
humidity
%
barometer
mb
20260505124525 58 143 1.0 3.0 0.00 0.00 0.00 90 1031.3
20260505123017 58 145 1.0 3.0 0.00 0.00 0.00 91 1031.3
20260505121513 58 149 0.0 3.0 0.00 0.00 0.00 91 1031.3
20260505120010 58 145 0.0 3.0 0.00 0.00 0.00 91 1031.4
20260505114517 57 148 1.0 2.0 0.00 0.00 0.00 91 1031.4
20260505113009 57 146 0.0 3.0 0.00 0.00 0.00 91 1031.4
20260505111508 57 149 0.0 2.0 0.00 0.00 0.00 91 1031.5
20260505101505 58 146 0.0 2.0 0.00 0.00 0.00 90 1032.0
20260505100006 58 143 0.0 2.0 0.00 0.00 0.00 90 1032.0
20260505094505 58 141 0.0 1.0 0.00 0.00 0.00 89 1031.9
20260505093003 59 142 0.0 2.0 0.00 0.00 0.00 89 1032.0
20260505091506 59 136 1.0 3.0 0.00 0.00 0.00 88 1032.0
20260505090002 59 134 0.0 2.0 0.00 0.00 0.00 88 1031.9
20260505084502 59 134 0.0 1.0 0.00 0.00 0.00 88 1031.9
20260505083100 59 134 0.0 2.0 0.00 0.00 0.00 88 1031.8
20260505081604 59 129 1.0 1.0 0.00 0.00 0.00 88 1031.8
20260505080059 59 128 0.0 1.0 0.00 0.00 0.00 88 1031.8
20260505074611 59 129 0.0 1.0 0.00 0.00 0.00 87 1031.9
20260505073102 60 129 0.0 1.0 0.00 0.00 0.00 86 1031.7
20260505071558 61 124 0.0 0.0 0.00 0.00 0.00 86 1031.6
20260505070057 61 122 0.0 1.0 0.00 0.00 0.00 85 1031.5
20260505064559 62 123 0.0 1.0 0.00 0.00 0.00 84 1031.5
20260505063059 62 123 0.0 1.0 0.00 0.00 0.00 83 1031.5
20260505061624 63 120 0.0 0.0 0.00 0.00 0.00 82 1031.4
20260505060055 63 120 0.0 2.0 0.00 0.00 0.00 81 1031.4
20260505054609 63 123 1.0 3.0 0.00 0.00 0.00 81 1031.4
20260505053055 63 120 0.0 2.0 0.00 0.00 0.00 80 1031.3
20260505051553 63 111 0.0 2.0 0.00 0.00 0.00 79 1031.4
20260505041551 65 124 0.0 3.0 0.00 0.00 0.00 75 1031.4
20260505040053 65 109 1.0 4.0 0.00 0.00 0.00 75 1031.4
20260505034551 66 117 1.0 3.0 0.00 0.00 0.00 72 1031.5
20260505033053 66 128 1.0 4.0 0.00 0.00 0.00 73 1031.5
20260505031549 67 120 2.0 7.0 0.00 0.00 0.00 70 1031.4
20260505030049 67 107 1.0 4.0 0.00 0.00 0.00 69 1031.4
20260505024605 67 120 1.0 4.0 0.00 0.00 0.00 69 1031.3
20260505023044 67 122 0.0 3.0 0.00 0.00 0.00 70 1031.4
20260505021601 67 85 1.0 5.0 0.00 0.00 0.00 69 1031.4
20260505020045 67 102 1.0 7.0 0.00 0.00 0.00 67 1031.5
20260505014538 68 107 3.0 7.0 0.00 0.00 0.00 66 1031.7
20260505013036 69 125 2.0 6.0 0.00 0.00 0.00 65 1031.8
20260505011547 70 53 1.0 3.0 0.00 0.00 0.00 65 1032.0
20260505010029 69 118 1.0 2.0 0.00 0.00 0.00 64 1032.2
20260505004536 68 80 0.0 3.0 0.00 0.00 0.00 69 1032.5
20260505003023 67 134 1.0 3.0 0.00 0.00 0.00 68 1032.7
20260505001519 68 135 0.0 1.0 0.00 0.00 0.00 67 1033.0
20260505000019 67 113 0.0 2.0 0.00 0.00 0.00 67 1033.1
20260504234518 68 86 1.0 3.0 0.00 0.00 0.00 65 1033.3
20260504233013 67 136 0.0 1.0 0.00 0.00 0.00 65 1033.4
20260504231509 66 123 0.0 2.0 0.00 0.00 0.00 69 1033.6
20260504230006 65 118 1.0 2.0 0.00 0.00 0.00 72 1033.8
20260504224502 64 129 0.0 3.0 0.00 0.00 0.00 73 1033.9
20260504223103 63 143 0.0 2.0 0.00 0.00 0.00 75 1033.9
20260504221606 62 143 0.0 2.0 0.00 0.00 0.00 75 1033.9
20260504220122 62 146 0.0 2.0 0.00 0.00 0.00 77 1033.8
20260504214551 61 154 0.0 3.0 0.00 0.00 0.00 78 1033.8
20260504213100 60 149 0.0 3.0 0.00 0.00 0.00 80 1033.8
20260504211544 59 158 0.0 3.0 0.00 0.00 0.00 80 1033.7
20260504210042 59 146 0.0 3.0 0.00 0.00 0.00 81 1033.8
20260504204557 58 146 0.0 2.0 0.00 0.00 0.00 82 1033.8
20260504203037 57 149 0.0 3.0 0.00 0.00 0.00 84 1033.8
20260504201535 56 143 0.0 2.0 0.00 0.00 0.00 84 1033.8
20260504200042 56 144 0.0 2.0 0.00 0.00 0.00 84 1033.6
20260504194539 55 146 1.0 3.0 0.00 0.00 0.00 84 1033.5
20260504193033 55 143 0.0 2.0 0.00 0.00 0.00 85 1033.4
20260504191536 55 143 0.0 1.0 0.00 0.00 0.00 84 1033.3
20260504190036 56 143 0.0 3.0 0.00 0.00 0.00 84 1033.3
20260504184535 56 146 0.0 3.0 0.00 0.00 0.00 83 1033.2
20260504183033 56 146 0.0 2.0 0.00 0.00 0.00 83 1033.2
20260504181529 56 149 0.0 1.0 0.00 0.00 0.00 83 1033.3
20260504180029 56 151 1.0 3.0 0.00 0.00 0.00 83 1033.3
20260504174527 56 149 0.0 2.0 0.00 0.00 0.00 83 1033.2
20260504173027 56 139 0.0 2.0 0.00 0.00 0.00 83 1033.3
20260504171525 56 139 0.0 1.0 0.00 0.00 0.00 82 1033.3